Powrót do katalogu

ATLAS 5 CENTAUR DEB

LostHEO
NORAD 49351·DEBRIS·🇺🇸 United States

Wystrzelony Oct 17, 2018 z Cape Canaveral Space Force Station

Loading…

Następne Przeloty (najbliższe 24 godziny)

TLE

NieaktualneSource: Space-Track

Epoka: Jul 8, 2026, 03:44 UTC

1 49351U 18079FC  26189.15594430 -.00000110  00000-0  00000-0 0  9997
2 49351  13.2808  57.1463 4522319 262.9189  45.2405  1.72124784 30565

Śledź ATLAS 5 CENTAUR DEB w czasie rzeczywistym z AllMySat

Download on the App Store